EW4320 Weather Reports


time (UTC)temp
F
wind
direction
speed
knots
gust
knots
rain 1hr
in
rain 24hr
in
rain mn
in
humidity
%
barometer
mb
20260508030004 43 141 0.0 1.7 0.00 0.00 0.00 90 1015.3
20260508025715 43 141 0.0 1.7 0.00 0.00 0.00 90 1015.3
20260508025003 43 141 0.0 1.7 0.00 0.00 0.00 90 1015.3
20260508024716 43 0 0.0 0.0 0.00 0.00 0.00 90 1015.3
20260508024215 44 0 0.0 0.0 0.00 0.00 0.00 90 1015.4
20260508023503 44 0 0.0 0.0 0.00 0.00 0.00 89 1015.4
20260508023003 44 0 0.0 0.0 0.00 0.00 0.00 90 1015.4
20260508022503 44 0 0.0 0.0 0.00 0.00 0.00 89 1015.3
20260508022003 45 0 0.0 0.0 0.00 0.00 0.00 89 1015.3
20260508021503 45 0 0.0 0.0 0.00 0.00 0.00 89 1015.3
20260508021003 45 141 0.0 2.6 0.00 0.00 0.00 89 1015.3
20260508020715 45 141 0.0 2.6 0.00 0.00 0.00 89 1015.3
20260508020004 46 0 0.0 0.0 0.00 0.00 0.00 89 1015.3
20260508015504 46 0 0.0 0.0 0.00 0.00 0.00 89 1015.2
20260508015003 46 141 0.0 1.7 0.00 0.00 0.00 90 1015.2
20260508014504 47 141 0.0 1.7 0.00 0.00 0.00 90 1015.2
20260508014004 47 141 0.0 1.7 0.00 0.00 0.00 90 1015.2
20260508013503 47 141 0.0 1.7 0.00 0.00 0.00 90 1015.2
20260508013005 47 141 0.0 0.9 0.00 0.00 0.00 90 1015.2
20260508012503 47 0 0.0 0.0 0.00 0.00 0.00 89 1015.2
20260508012004 47 0 0.0 0.0 0.00 0.00 0.00 89 1015.2
20260508011503 47 0 0.0 0.0 0.00 0.00 0.00 89 1015.2
20260508011005 47 0 0.0 0.0 0.00 0.00 0.00 89 1015.2
20260508010503 48 141 0.0 1.7 0.00 0.00 0.00 89 1015.2
20260508010003 47 141 0.0 1.7 0.00 0.00 0.00 89 1015.2
20260508005504 47 141 0.0 2.6 0.00 0.00 0.00 89 1015.2
20260508005004 47 141 0.0 2.6 0.00 0.00 0.00 89 1015.2
20260508004503 47 141 0.0 1.7 0.00 0.00 0.00 89 1015.2
20260508004215 47 141 0.0 1.7 0.00 0.00 0.00 89 1015.2
20260508003504 47 0 0.0 0.0 0.00 0.00 0.00 89 1015.2
20260508003003 47 0 0.0 0.0 0.00 0.00 0.00 89 1015.2
20260508002503 47 0 0.0 0.0 0.00 0.00 0.00 89 1015.2
20260508002005 47 141 0.0 1.7 0.00 0.00 0.00 89 1015.2
20260508001504 48 141 0.9 1.7 0.00 0.00 0.00 89 1015.2
20260508001003 48 141 0.0 1.7 0.00 0.00 0.00 88 1015.3
20260508000504 48 141 0.0 1.7 0.00 0.00 0.00 88 1015.3
20260508000013 48 141 0.0 0.9 0.00 0.00 0.00 88 1015.3
20260507235504 48 141 0.0 1.7 0.00 0.00 0.00 88 1015.5
20260507235003 48 141 0.9 2.6 0.00 0.00 0.00 88 1015.5
20260507234503 48 141 0.9 2.6 0.00 0.00 0.00 88 1015.5
20260507234003 48 141 0.9 2.6 0.00 0.00 0.00 88 1015.6
20260507233503 48 141 0.9 2.6 0.00 0.00 0.00 88 1015.6
20260507233003 48 141 0.9 2.6 0.00 0.00 0.00 88 1015.6
20260507232715 48 141 0.0 2.6 0.00 0.00 0.00 87 1015.7
20260507232003 48 141 0.9 1.7 0.00 0.00 0.00 87 1015.7
20260507231503 48 141 0.9 1.7 0.00 0.00 0.00 87 1015.7
20260507231004 48 141 0.0 0.9 0.00 0.00 0.00 87 1015.7
20260507230503 48 141 0.0 1.7 0.00 0.00 0.00 87 1015.7
20260507230214 48 141 0.0 1.7 0.00 0.00 0.00 87 1015.7
20260507225504 48 141 0.0 1.7 0.00 0.00 0.00 86 1015.7
20260507225216 48 141 0.0 1.7 0.00 0.00 0.00 86 1015.7
20260507224503 48 141 0.0 1.7 0.00 0.00 0.00 86 1015.7
20260507224004 48 141 0.0 1.7 0.00 0.00 0.00 86 1015.7
20260507223503 48 0 0.0 0.0 0.00 0.00 0.00 86 1015.7
20260507223003 47 0 0.0 0.0 0.00 0.00 0.00 86 1015.7
20260507222503 47 141 0.0 0.9 0.00 0.00 0.00 86 1015.7
20260507222004 47 141 0.0 1.7 0.00 0.00 0.00 85 1015.7
20260507221716 47 141 0.0 1.7 0.00 0.00 0.00 85 1015.7
20260507221003 47 141 0.0 1.7 0.00 0.00 0.00 85 1015.7
20260507220504 47 141 0.0 0.9 0.00 0.00 0.00 84 1015.7
20260507220003 47 141 0.0 0.9 0.00 0.00 0.00 84 1015.7
20260507215504 47 141 0.0 1.7 0.00 0.00 0.00 84 1015.7
20260507215004 47 143 0.9 2.6 0.00 0.00 0.00 84 1015.7
20260507214504 47 143 0.9 2.6 0.00 0.00 0.00 83 1015.7
20260507214003 47 143 0.9 2.6 0.00 0.00 0.00 83 1015.7
20260507213504 47 130 0.9 2.6 0.00 0.00 0.00 83 1015.7
20260507213005 47 113 0.9 1.7 0.00 0.00 0.00 83 1015.7
20260507212716 47 113 0.0 1.7 0.00 0.00 0.00 82 1015.6
20260507212005 47 113 0.0 1.7 0.00 0.00 0.00 81 1015.6
20260507211717 47 113 0.0 1.7 0.00 0.00 0.00 81 1015.6
20260507211004 48 113 0.0 1.7 0.00 0.00 0.00 80 1015.5
20260507210504 48 113 0.0 1.7 0.00 0.00 0.00 80 1015.5
20260507210003 48 115 0.0 2.6 0.00 0.00 0.00 80 1015.5
20260507205503 48 115 0.9 2.6 0.00 0.00 0.00 80 1015.6
20260507205003 48 114 0.0 1.7 0.00 0.00 0.00 79 1015.6
20260507204503 49 114 0.9 1.7 0.00 0.00 0.00 79 1015.6
20260507204218 49 111 0.9 2.6 0.00 0.00 0.00 79 1015.3
20260507203504 49 116 1.7 5.2 0.00 0.00 0.00 79 1015.3
20260507203005 49 123 1.7 5.2 0.00 0.00 0.00 78 1015.3
20260507202504 50 120 1.7 2.6 0.00 0.00 0.00 78 1015.2
20260507202003 50 115 1.7 2.6 0.00 0.00 0.00 77 1015.2
20260507201503 50 118 1.7 2.6 0.00 0.00 0.00 77 1015.2
20260507201003 50 130 1.7 4.3 0.00 0.00 0.00 77 1015.0
20260507200504 51 128 2.6 5.2 0.00 0.00 0.00 76 1015.0
20260507200003 51 115 2.6 5.2 0.00 0.00 0.00 76 1015.0
20260507195503 51 109 2.6 5.2 0.00 0.00 0.00 75 1014.7
20260507195004 52 110 2.6 5.2 0.00 0.00 0.00 75 1014.7
20260507194715 52 113 2.6 6.1 0.00 0.00 0.00 74 1014.7
20260507194004 52 118 2.6 6.1 0.00 0.00 0.00 74 1014.7
20260507193504 52 124 1.7 5.2 0.00 0.00 0.00 73 1014.7
20260507193004 53 127 2.6 8.7 0.00 0.00 0.00 73 1014.7
20260507192717 53 127 3.5 9.6 0.00 0.00 0.00 72 1014.7
20260507192004 53 124 4.3 9.6 0.00 0.00 0.00 72 1014.7
20260507191504 53 127 3.5 11.3 0.00 0.00 0.00 71 1014.7
20260507191003 54 121 3.5 11.3 0.00 0.00 0.00 71 1014.6
20260507190714 54 119 3.5 7.8 0.00 0.00 0.00 71 1014.6
20260507190004 54 121 4.3 9.6 0.00 0.00 0.00 70 1014.6
20260507185503 54 119 4.3 10.4 0.00 0.00 0.00 69 1014.6
20260507185218 54 122 5.2 10.4 0.00 0.00 0.00 69 1014.6
20260507184503 54 123 5.2 13.0 0.00 0.00 0.00 68 1014.6
20260507184004 54 117 4.3 10.4 0.00 0.00 0.00 69 1014.5
20260507183503 55 111 4.3 10.4 0.00 0.00 0.00 68 1014.5
20260507183215 55 108 3.5 7.8 0.00 0.00 0.00 68 1014.5
20260507182505 55 111 3.5 9.6 0.00 0.00 0.00 68 1014.3
20260507182003 55 121 3.5 9.6 0.00 0.00 0.00 68 1014.3
20260507181503 55 122 4.3 9.6 0.00 0.00 0.00 68 1014.3
20260507181004 55 115 4.3 9.6 0.00 0.00 0.00 68 1014.2
20260507180503 55 114 5.2 10.4 0.00 0.00 0.00 68 1014.2
20260507180218 55 115 5.2 10.4 0.00 0.00 0.00 68 1014.2
20260507175503 55 113 6.1 10.4 0.00 0.00 0.00 68 1014.2
20260507175003 56 115 5.2 10.4 0.00 0.00 0.00 67 1014.2
20260507174504 56 114 4.3 9.6 0.00 0.00 0.00 67 1014.2
20260507174004 56 120 4.3 10.4 0.00 0.00 0.00 65 1014.1
20260507173503 56 133 3.5 10.4 0.00 0.00 0.00 64 1014.1
20260507173003 56 124 4.3 9.6 0.00 0.00 0.00 64 1014.1
20260507172503 57 119 5.2 10.4 0.00 0.00 0.00 64 1014.1
20260507172217 57 121 5.2 10.4 0.00 0.00 0.00 64 1014.1
20260507171503 57 117 6.1 10.4 0.00 0.00 0.00 63 1014.1
20260507171004 57 115 5.2 10.4 0.00 0.00 0.00 63 1014.1
20260507170503 57 117 4.3 11.3 0.00 0.00 0.00 64 1014.1
20260507170005 57 135 4.3 11.3 0.00 0.00 0.00 63 1014.1
20260507165503 57 134 4.3 9.6 0.00 0.00 0.00 63 1014.2
20260507165004 57 112 4.3 11.3 0.00 0.00 0.00 63 1014.2
20260507164503 57 109 5.2 11.3 0.00 0.00 0.00 63 1014.2
20260507164215 57 110 6.1 11.3 0.00 0.00 0.00 63 1014.2
20260507163503 57 119 6.1 12.2 0.00 0.00 0.00 63 1014.2
20260507163003 57 122 5.2 12.2 0.00 0.00 0.00 62 1014.2
20260507162504 57 118 5.2 11.3 0.00 0.00 0.00 62 1014.3
20260507162004 57 120 6.1 11.3 0.00 0.00 0.00 62 1014.3
20260507161503 57 118 6.1 10.4 0.00 0.00 0.00 62 1014.3
20260507161003 57 113 5.2 10.4 0.00 0.00 0.00 63 1014.3
20260507160504 56 107 5.2 9.6 0.00 0.00 0.00 64 1014.3
20260507160003 56 100 4.3 9.6 0.00 0.00 0.00 63 1014.3
20260507155504 56 101 4.3 12.2 0.00 0.00 0.00 63 1014.5
20260507155004 56 110 5.2 12.2 0.00 0.00 0.00 64 1014.5
20260507154504 56 116 4.3 9.6 0.00 0.00 0.00 65 1014.5
20260507154216 56 111 4.3 8.7 0.00 0.00 0.00 65 1014.4
20260507153504 56 106 2.6 7.8 0.00 0.00 0.00 65 1014.4
20260507153217 56 120 2.6 7.8 0.00 0.00 0.00 64 1014.4
20260507152504 56 124 3.5 7.8 0.00 0.00 0.00 64 1014.4
20260507152003 56 135 3.5 7.8 0.00 0.00 0.00 64 1014.4
20260507151504 56 135 2.6 5.2 0.00 0.00 0.00 62 1014.4
20260507151004 57 118 2.6 5.2 0.00 0.00 0.00 62 1014.5
20260507150503 57 89 2.6 6.1 0.00 0.00 0.00 62 1014.5
20260507150003 57 94 3.5 7.8 0.00 0.00 0.00 62 1014.5
20260507145504 57 98 3.5 7.8 0.00 0.00 0.00 63 1014.5
20260507145003 57 88 2.6 7.8 0.00 0.00 0.00 62 1014.5
20260507144505 57 82 3.5 7.8 0.00 0.00 0.00 64 1014.5
20260507144216 57 83 3.5 7.8 0.00 0.00 0.00 63 1014.6
20260507143503 56 90 2.6 6.1 0.00 0.00 0.00 62 1014.6
20260507143004 56 88 3.5 6.1 0.00 0.00 0.00 62 1014.6
20260507142503 57 84 4.3 9.6 0.00 0.00 0.00 62 1014.7
20260507142003 57 81 3.5 9.6 0.00 0.00 0.00 62 1014.7
20260507141503 57 87 2.6 6.1 0.00 0.00 0.00 63 1014.7
20260507141006 57 85 3.5 6.1 0.00 0.00 0.00 63 1014.7
20260507140717 57 72 2.6 7.8 0.00 0.00 0.00 65 1014.7
20260507140006 57 70 3.5 7.8 0.00 0.00 0.00 64 1014.7
20260507135718 57 80 3.5 7.8 0.00 0.00 0.00 64 1014.8
20260507135216 56 86 3.5 7.8 0.00 0.00 0.00 67 1014.8
20260507134504 56 80 3.5 8.7 0.00 0.00 0.00 67 1014.8
20260507134003 56 77 3.5 9.6 0.00 0.00 0.00 65 1015.0
20260507133504 57 79 3.5 9.6 0.00 0.00 0.00 64 1015.0
20260507133003 57 87 3.5 9.6 0.00 0.00 0.00 63 1015.0
20260507132503 56 91 2.6 5.2 0.00 0.00 0.00 65 1015.1
20260507132003 56 76 1.7 5.2 0.00 0.00 0.00 67 1015.1
20260507131503 55 72 1.7 4.3 0.00 0.00 0.00 68 1015.1
20260507131005 55 73 2.6 5.2 0.00 0.00 0.00 67 1015.1
20260507130503 55 77 2.6 5.2 0.00 0.00 0.00 69 1015.1
20260507130005 54 95 2.6 4.3 0.00 0.00 0.00 68 1015.1
20260507125714 55 97 1.7 4.3 0.00 0.00 0.00 69 1015.2
20260507125004 54 77 1.7 5.2 0.00 0.00 0.00 68 1015.2
20260507124503 55 61 1.7 5.2 0.00 0.00 0.00 67 1015.2
20260507124004 55 40 1.7 4.3 0.00 0.00 0.00 67 1015.2
20260507123503 55 50 1.7 4.3 0.00 0.00 0.00 67 1015.2
20260507123005 54 69 1.7 4.3 0.00 0.00 0.00 66 1015.2
20260507122717 54 67 1.7 4.3 0.00 0.00 0.00 66 1015.2
20260507122003 54 54 1.7 5.2 0.00 0.00 0.00 66 1015.2
20260507121503 54 71 2.6 5.2 0.00 0.00 0.00 68 1015.2
20260507121216 54 75 2.6 5.2 0.00 0.00 0.00 68 1015.2
20260507120503 54 70 2.6 5.2 0.00 0.00 0.00 71 1015.2
20260507120004 53 75 2.6 5.2 0.00 0.00 0.00 70 1015.2
20260507115503 53 63 2.6 5.2 0.00 0.00 0.00 71 1015.4
20260507115004 54 51 1.7 4.3 0.00 0.00 0.00 71 1015.4
20260507114503 53 48 1.7 3.5 0.00 0.00 0.00 72 1015.4
20260507114004 53 52 0.9 2.6 0.00 0.00 0.00 73 1015.4
20260507113503 53 62 1.7 4.3 0.00 0.00 0.00 72 1015.4
20260507113003 53 51 1.7 5.2 0.00 0.00 0.00 72 1015.4
20260507112717 53 57 1.7 5.2 0.00 0.00 0.00 72 1015.5
20260507112003 52 58 1.7 3.5 0.00 0.01 0.00 72 1015.5
20260507111504 52 52 0.9 2.6 0.00 0.01 0.00 73 1015.5
20260507111216 52 43 0.9 2.6 0.00 0.01 0.00 74 1015.6
20260507110503 52 16 0.9 2.6 0.00 0.01 0.00 74 1015.6
20260507110004 52 23 0.9 2.6 0.00 0.01 0.00 74 1015.6
20260507105504 52 27 0.9 2.6 0.00 0.01 0.00 74 1015.6
20260507105218 52 34 0.9 2.6 0.00 0.01 0.00 74 1015.6
20260507104503 52 49 0.9 2.6 0.00 0.01 0.00 74 1015.6
20260507104003 52 52 0.9 2.6 0.00 0.01 0.00 74 1015.6
20260507103503 52 56 0.0 0.9 0.00 0.01 0.00 74 1015.6
20260507103003 52 59 0.0 0.9 0.00 0.01 0.00 74 1015.6
20260507102504 52 59 0.0 0.9 0.00 0.01 0.00 75 1015.6
20260507102006 52 59 0.0 1.7 0.00 0.01 0.00 75 1015.6
20260507101504 52 66 0.9 2.6 0.00 0.01 0.00 75 1015.6
20260507101004 52 63 0.9 2.6 0.00 0.01 0.00 76 1015.6
20260507100503 51 58 1.7 2.6 0.00 0.01 0.00 76 1015.6
20260507100218 51 55 0.9 2.6 0.00 0.01 0.00 75 1015.6
20260507095716 51 5 0.0 2.6 0.00 0.01 0.00 75 1015.6
20260507095003 52 360 0.0 1.7 0.00 0.01 0.00 75 1015.6
20260507094503 52 359 0.9 2.6 0.00 0.01 0.00 75 1015.6
20260507094004 52 316 0.9 2.6 0.00 0.01 0.00 75 1015.6
20260507093503 52 209 0.9 1.7 0.00 0.01 0.00 75 1015.6
20260507093003 52 202 0.9 2.6 0.00 0.01 0.00 75 1015.6
20260507092503 52 198 0.9 2.6 0.00 0.01 0.00 75 1015.5
20260507092003 52 202 0.9 4.3 0.00 0.01 0.00 74 1015.5
20260507091504 52 209 0.9 4.3 0.00 0.01 0.00 74 1015.5
20260507091212 52 214 0.9 2.6 0.00 0.01 0.00 74 1015.4
20260507090505 52 210 0.9 3.5 0.00 0.01 0.00 74 1015.4
20260507090005 52 193 1.7 4.3 0.00 0.01 0.00 74 1015.4
20260507085505 52 171 0.9 4.3 0.00 0.01 0.00 74 1015.3
20260507085003 52 164 0.9 2.6 0.00 0.01 0.00 74 1015.3
20260507084504 53 206 1.7 4.3 0.00 0.01 0.00 74 1015.3
20260507084215 53 211 1.7 4.3 0.00 0.01 0.00 74 1015.5
20260507083713 53 198 2.6 5.2 0.00 0.01 0.00 76 1015.5
20260507083005 50 167 1.7 4.3 0.00 0.01 0.00 79 1015.5
20260507082504 50 155 0.9 4.3 0.00 0.01 0.00 79 1015.5
20260507082005 50 156 1.7 5.2 0.00 0.01 0.00 79 1015.5
20260507081505 50 169 1.7 5.2 0.00 0.01 0.00 80 1015.5
20260507081004 50 182 1.7 4.3 0.00 0.01 0.00 79 1015.5
20260507080503 50 155 1.7 4.3 0.00 0.01 0.00 80 1015.5
20260507080005 50 145 1.7 4.3 0.00 0.01 0.00 80 1015.5
20260507075504 50 137 1.7 4.3 0.00 0.01 0.00 80 1015.3
20260507075003 50 145 1.7 4.3 0.00 0.01 0.00 81 1015.3
20260507074503 49 162 1.7 4.3 0.00 0.01 0.00 82 1015.3
20260507074003 49 157 1.7 5.2 0.00 0.01 0.00 83 1015.3
20260507073505 49 162 1.7 5.2 0.00 0.01 0.00 84 1015.3
20260507073003 49 168 1.7 4.3 0.00 0.01 0.00 85 1015.3
20260507072504 49 139 0.9 2.6 0.00 0.01 0.00 86 1015.2
20260507072004 49 96 0.9 2.6 0.00 0.01 0.00 86 1015.2
20260507071504 48 87 1.7 4.3 0.00 0.01 0.00 87 1015.2
20260507071004 48 85 1.7 4.3 0.00 0.01 0.00 87 1015.2
20260507070717 48 87 1.7 4.3 0.00 0.01 0.00 88 1015.2
20260507070006 48 103 1.7 3.5 0.00 0.01 0.00 89 1015.2
20260507065712 48 110 0.9 3.5 0.00 0.01 0.00 89 1015.2
20260507065004 47 106 0.9 2.6 0.00 0.01 0.00 89 1015.2
20260507064504 47 121 1.7 4.3 0.00 0.01 0.00 90 1015.2
20260507064003 47 129 1.7 4.3 0.00 0.01 0.00 90 1015.1
20260507063503 47 123 1.7 4.3 0.00 0.01 0.00 91 1015.1
20260507063004 47 137 0.9 4.3 0.00 0.01 0.00 92 1015.1
20260507062504 47 124 0.9 4.3 0.00 0.01 0.00 92 1015.0
20260507062004 47 100 0.9 4.3 0.00 0.01 0.00 92 1015.0
20260507061503 46 86 0.9 4.3 0.00 0.01 0.00 92 1015.0
20260507061003 46 46 0.9 2.6 0.00 0.01 0.00 93 1015.0
20260507060504 46 10 0.9 2.6 0.00 0.01 0.00 93 1015.0
20260507060004 45 1 0.9 2.6 0.00 0.01 0.00 93 1015.0
20260507055503 44 1 0.9 2.6 0.00 0.01 0.00 93 1014.9
20260507055004 44 1 0.9 2.6 0.00 0.01 0.00 92 1014.9
20260507054504 44 1 0.9 2.6 0.00 0.01 0.00 92 1014.9
20260507054004 43 10 1.7 2.6 0.00 0.01 0.00 92 1014.9
20260507053503 43 43 0.9 2.6 0.00 0.01 0.00 92 1014.9
20260507053218 43 74 0.9 1.7 0.00 0.01 0.00 92 1014.9
20260507052503 43 95 0.9 1.7 0.00 0.01 0.00 91 1014.8
20260507052003 43 95 0.0 1.7 0.00 0.01 0.00 91 1014.8
20260507051503 43 0 0.0 0.0 0.00 0.01 0.00 91 1014.8
20260507051004 43 0 0.0 0.0 0.00 0.01 0.00 91 1014.7
20260507050504 43 0 0.0 0.0 0.00 0.01 0.00 91 1014.7
20260507050005 44 0 0.0 0.0 0.00 0.01 0.00 91 1014.7
20260507045504 44 0 0.0 0.0 0.00 0.01 0.00 91 1014.7
20260507045005 44 0 0.0 0.0 0.00 0.01 0.00 91 1014.7
20260507044715 44 0 0.0 0.0 0.00 0.01 0.00 91 1014.7
20260507044213 44 0 0.0 0.0 0.00 0.01 0.00 91 1014.7
20260507043716 44 0 0.0 0.0 0.00 0.01 0.00 91 1014.7
20260507043003 45 0 0.0 0.9 0.00 0.01 0.00 91 1014.7
20260507042503 45 95 0.0 0.9 0.00 0.01 0.00 91 1014.6
20260507042003 45 95 0.0 1.7 0.00 0.01 0.00 91 1014.6
20260507041504 45 95 0.9 1.7 0.00 0.01 0.00 91 1014.6
20260507041003 46 91 0.9 1.7 0.00 0.01 0.00 91 1014.6
20260507040713 46 88 0.9 1.7 0.00 0.01 0.00 91 1014.6
20260507040217 46 82 0.9 2.6 0.00 0.01 0.00 91 1014.6
20260507035504 46 81 0.9 1.7 0.00 0.01 0.00 91 1014.6
20260507035212 46 79 0.9 3.5 0.00 0.01 0.00 91 1014.6
20260507034504 46 80 1.7 3.5 0.00 0.01 0.00 91 1014.6
20260507034004 46 78 1.7 3.5 0.00 0.01 0.00 91 1014.5
20260507033504 46 77 2.6 4.3 0.00 0.01 0.00 91 1014.5
20260507033004 46 78 1.7 4.3 0.00 0.01 0.00 91 1014.5
20260507032503 46 76 1.7 2.6 0.00 0.01 0.00 91 1014.6
20260507032004 46 74 1.7 4.3 0.00 0.01 0.00 91 1014.6
20260507031504 46 75 0.9 4.3 0.00 0.01 0.00 91 1014.6
20260507031005 46 76 0.9 2.6 0.00 0.01 0.00 91 1014.5
20260507030504 46 79 1.7 3.5 0.00 0.01 0.00 91 1014.5